Location: Asbrunn
(48.8087°N, 10.9883°E)
Time: 19:56:13
(UTC+00:00)

Daily predictions for brighter satellites

Satellite Brightness Start Highest point End
(mag) Time Altitude Azimuth Time Altitude Azimuth Time Altitude Azimuth
Cosmos 1703 Rocket 4.0 17:55:18 10° N 17:59:35 43° ENE 18:03:48 10° SSE
Cosmos 1802 Rocket 4.4 17:54:09 10° N 18:00:05 43° ENE 18:06:03 10° SE
Meteor 1-23 Rocket 4.3 17:55:24 10° NNW 18:00:59 89° ENE 18:06:33 10° S
Cosmos 1437 Rocket 2.8 17:57:25 10° S 18:01:27 73° E 18:05:30 10° NNE
CZ-4 R/B 1.4 17:58:33 10° SSE 18:02:18 53° ENE 18:06:06 10° N
Iridium 4 Rocket 4.2 17:59:26 10° NNE 18:02:40 21° ENE 18:05:52 10° SE
SL-16 R/B 4.2 18:00:01 10° N 18:02:59 14° NNE 18:05:57 10° ENE
Resurs 1-3 4.4 18:05:34 10° SE 18:09:24 31° ENE 18:13:16 10° N
Cosmos 1624 Rocket 4.0 18:05:15 10° S 18:10:30 66° ESE 18:15:48 10° NNE
Cosmos 1470 Rocket 3.6 18:07:04 10° S 18:11:32 84° E 18:16:03 10° N
Cosmos 2016 Rocket 4.3 18:07:47 10° N 18:13:37 44° ENE 18:19:26 10° SE
NOSS 0 Rocket 4.3 18:08:19 10° NNW 18:14:21 49° NE 18:20:18 10° SE
Cosmos 1420 Rocket 4.0 18:11:40 10° SSW 18:16:51 71° ESE 18:22:03 10° NNE
Cosmos 2123 Rocket 4.4 18:12:21 10° SSE 18:18:11 42° E 18:24:06 10° NNE
Cosmos 2173 Rocket 4.0 18:12:28 10° N 18:18:53 74° E 18:25:14 10° SSE
Okean-O 3.6 18:15:41 10° SE 18:19:30 29° ENE 18:23:20 10° N
Cosmos 1263 4.3 18:17:34 10° S 18:21:05 89° ESE 18:24:09 10° N
Okean 2 4.2 18:18:23 10° N 18:22:02 31° ENE 18:25:41 10° SE
Timation 1 Rocket 4.4 18:16:57 10° SSW 18:22:52 65° ESE 18:28:50 10° NE
Cosmos 1000 Rocket 4.4 18:18:01 10° S 18:24:05 68° E 18:30:12 10° NNE
Okean O Rocket 1.6 18:23:17 10° SSE 18:27:42 85° ENE 18:32:08 10° NNW
Cosmos 2242 Rocket 3.8 18:24:50 10° N 18:29:19 51° ENE 18:33:45 10° SSE
Cosmos 2100 Rocket 4.1 18:23:00 10° N 18:29:25 90° E 18:35:45 10° S
GEOS 3 Rocket 3.7 18:24:15 10° NE 18:29:40 79° SE 18:35:03 10° SW
YAOGAN 1 3.7 18:25:46 10° S 18:29:56 47° W 18:34:07 10° NNW
CSL-04 Rocket 3.9 18:26:44 10° SE 18:32:07 54° ENE 18:37:31 10° N
USA 215 3.7 18:26:10 10° NE 18:32:38 64° NNW 18:39:03 10° WSW
ISS -3.2 18:29:33 10° W 18:32:51 56° N 18:35:45 13° ENE
Cosmos 676 Rocket 4.3 18:29:21 10° NNW 18:34:33 73° WSW 18:39:47 10° SSE
SL-27 R/B 2.3 18:31:41 10° SSW 18:34:59 85° WNW 18:38:16 10° NNE
Cosmos 1452 Rocket 4.0 18:30:18 10° SSE 18:35:04 36° ESE 18:39:52 10° NE
KORONAS-FOTON 4.1 18:31:39 10° NNW 18:35:26 68° W 18:39:14 10° S
Cosmos 2237 Rocket 2.7 18:33:41 10° NNW 18:39:05 44° NE 18:43:19 16° ESE
Exosat Rocket 3.9 18:36:08 10° SSW 18:41:19 88° WNW 18:48:03 10° NNE
USA 186 1.5 18:41:07 10° SSE 18:44:12 76° ENE 18:47:20 10° N
Okean 3 4.4 18:44:27 10° NNW 18:48:32 50° W 18:52:37 10° S
Meteor 1-21 4.4 18:42:57 10° NNW 18:48:35 74° W 18:54:12 10° S
H-2A R/B 4.4 18:47:34 15° ENE 18:48:37 16° ENE 18:51:17 10° NNE
Cosmos 1741 Rocket 4.0 18:45:08 10° NNW 18:50:20 62° ENE 18:54:39 15° SE
Cosmos 1707 4.4 18:50:05 10° NNW 18:53:36 36° W 18:57:04 10° SSW
CZ-4B R/B 4.3 18:48:13 10° S 18:53:39 48° W 18:59:07 10° NNW
IRS-1C Rocket 4.2 18:50:13 12° SE 18:54:55 54° ENE 19:00:04 10° N
Cosmos 968 Rocket 4.3 18:50:16 10° N 18:54:58 33° NE 18:57:25 22° ESE
Cosmos 2322 4.5 18:49:32 10° NW 18:55:01 52° WSW 19:00:28 10° S
Okean 1-7 4.2 18:50:55 10° NNW 18:55:05 44° W 18:59:13 10° SSW
Cosmos 1674 4.1 18:54:32 10° NNW 18:58:01 38° W 19:01:29 10° SSW
Cosmos 1805 3.1 18:54:43 10° S 18:58:29 60° E 19:02:15 10° NNE
Lacrosse 5 rocket 2.3 18:55:07 10° S 18:58:42 26° SE 18:59:09 26° ESE
Cosmos 1980 3.8 18:54:51 10° NNW 19:00:31 63° ENE 19:04:23 21° SE
Cosmos 2219 Rocket 3.7 18:56:20 10° NW 19:01:31 37° WSW 19:06:41 10° S
Cosmos 1933 Rocket 4.5 18:58:42 10° SSW 19:02:55 51° WNW 19:07:10 10° N
Cosmos 1975 3.4 18:59:03 10° SSW 19:02:57 60° WNW 19:06:55 10° N
SJ-6B 3.4 18:59:13 10° S 19:03:05 57° W 19:06:54 10° NNW
Cosmos 2333 Rocket 4.4 18:58:41 10° NW 19:03:19 25° WSW 19:07:55 10° SSW
Cosmos 1726 1.8 19:04:27 10° S 19:07:56 76° E 19:11:28 10° NNE
Cosmos 2233 Rocket 3.9 19:01:58 10° N 19:08:06 70° ENE 19:14:14 10° SSE
CSL-04 Debris 4.4 19:03:07 10° S 19:08:32 74° WSW 19:14:00 10° NNW
Ariane Rocket 4.0 19:09:42 25° E 19:11:05 28° ENE 19:15:21 10° N
BREEZE-M DEB (TANK) 4.4 19:10:38 10° W 19:12:11 12° SW 19:13:26 10° SSW
Cosmos 2061 Rocket 4.1 19:05:48 10° N 19:12:17 88° W 19:18:42 10° S
Cosmos 1869 Rocket 3.6 19:08:09 10° SSW 19:12:28 77° WNW 19:16:50 10° N
COSMOS 2428 3.6 19:09:15 10° NW 19:14:45 48° WSW 19:20:13 10° S
Landsat 5 3.4 19:11:27 10° NNE 19:15:12 49° E 19:17:14 24° SSE
SL-14 R/B 3.2 19:12:50 10° NNW 19:16:42 80° W 19:19:24 19° S
USA 281 4.5 19:13:59 10° NNE 19:20:05 42° NW 19:26:09 10° WSW
Cosmos 2297 Rocket 2.3 19:15:35 10° S 19:21:01 51° ESE 19:26:29 10° NE
ATLAS 3B R/B 4.5 19:17:50 10° NW 19:23:45 25° N 19:29:53 10° ENE
Cosmos 1867 3.5 19:19:23 10° SSW 19:24:47 70° SE 19:30:14 10° NE
Resurs 01 Rocket 1.5 19:25:55 30° SSE 19:28:05 83° ENE 19:32:32 10° NNW
Meteor 2-5 Rocket 4.3 19:25:12 10° N 19:30:38 39° ENE 19:32:00 35° E
Cosmos 1733 4.4 19:29:05 10° SSW 19:32:41 42° WNW 19:36:18 10° N
SPOT 3 Rocket 4.4 19:32:02 31° E 19:32:44 33° ENE 19:37:22 10° N
CZ-4C R/B 3.6 19:26:43 10° NW 19:32:59 40° NNE 19:36:50 25° E
CENTAUR R/B 3.9 19:25:16 10° NW 19:33:14 53° WSW 19:41:25 12° SSE
NOSS 3-2 (C) 4.1 19:25:59 10° NW 19:33:26 81° SW 19:38:47 26° SSE
Cosmos 1271 Rocket 3.9 19:36:59 29° NE 19:36:59 29° NE 19:39:04 10° NNE
MOS 1 4.2 19:33:10 29° SSE 19:36:15 77° ENE 19:41:59 10° NNW
IRS-P2 Rocket 4.5 19:33:49 28° SSE 19:36:37 87° ENE 19:41:53 10° NNW
Cosmos 2227 Rocket 2.5 19:35:03 33° SSE 19:36:51 42° ESE 19:42:10 10° NE
CZ-4 R/B 4.3 19:35:20 10° SW 19:37:30 14° W 19:39:42 10° NW
Terra 3.1 19:42:45 25° NE 19:42:45 25° NE 19:46:12 10° N
Iridium 4 Rocket 4.4 19:38:54 10° NNW 19:42:46 37° W 19:46:35 10° SSW
Geosat 4.3 19:40:51 29° S 19:43:23 63° WSW 19:48:24 10° NW
USA 238 DEB 3.9 19:39:45 10° NW 19:47:04 82° SW 19:50:51 34° SSE
USA 238 3.9 19:39:51 10° NW 19:47:10 82° SW 19:50:55 34° SSE
MetOp-A 4.0 19:46:21 44° SSE 19:48:05 78° ENE 19:53:17 10° NNW
SL-16 R/B 2.5 19:43:02 10° NNW 19:48:35 50° NE 19:49:39 44° E
Cosmos 1674 Rocket 3.3 19:48:14 10° N 19:52:36 76° E 19:52:42 76° E
Cosmos 1733 Rocket 3.0 19:53:01 37° SSW 19:54:40 78° W 19:59:00 10° N
Okean-O 4.1 19:52:20 13° SSW 19:55:52 35° W 19:59:56 10° NNW
CARTOSAT-1 3.6 19:58:45 65° SSW 19:59:16 76° WSW 20:03:36 10° NNW
SPOT 1/Viking Rocket 4.3 19:55:57 19° SSW 19:59:31 49° W 20:04:35 10° NNW
Meteor 2-13 Rocket 4.4 19:53:22 10° S 19:59:32 89° W 20:05:45 10° N
Cosmos 1110 Rocket 4.4 19:56:44 10° SW 20:01:54 62° WNW 20:07:03 10° NNE
SPOT 5 3.1 20:02:23 52° NE 20:02:23 52° NE 20:06:43 10° N
Cosmos 1378 Rocket 3.5 19:59:24 10° NNW 20:03:49 80° W 20:04:02 77° SW
Cosmos 2221 Rocket 3.8 20:00:28 10° NNW 20:04:53 68° W 20:05:26 60° SW
Cosmos 1464 Rocket 4.0 20:00:52 10° N 20:07:13 68° ENE 20:08:27 56° SE
BREEZE-M DEB (TANK) 3.6 20:05:02 10° WNW 20:08:23 41° W 20:08:23 41° W
ISS -2.1 20:06:36 10° WNW 20:08:42 34° NW 20:08:42 34° NW
USA 215 4.1 20:10:32 18° ENE 20:15:06 44° N 20:21:13 10° WNW
ADEOS Rocket 3.3 20:15:26 53° E 20:16:17 57° ENE 20:23:08 10° N
Cosmos 1891 Rocket 4.4 20:11:55 10° N 20:18:04 82° W 20:19:47 51° S
Meteor 1-22 Rocket 4.2 20:20:17 68° SSE 20:20:55 75° E 20:27:01 10° NNE
Cosmos 2237 Rocket 3.4 20:17:57 10° NW 20:23:03 36° WSW 20:25:11 27° SSW
H-2A R/B 2.9 20:23:55 64° NW 20:23:55 64° NW 20:27:48 10° NNW
Meteor 1-15 Rocket 4.3 20:24:43 53° SSW 20:26:12 83° WNW 20:32:07 10° N
Cosmos 2346 Rocket 4.5 20:31:21 48° SSW 20:33:12 78° W 20:39:26 10° N
ATLAS CENTAUR R/B 4.2 20:19:29 10° WSW 20:34:21 72° NNW 20:40:10 16° NE
Cosmos 968 Rocket 4.4 20:32:01 10° NW 20:36:50 40° WSW 20:37:26 38° WSW
Lacrosse 5 rocket 3.5 20:33:07 10° WSW 20:34:34 20° WSW 20:34:34 20° WSW
SJ 16-02 2.7 20:33:36 10° NNW 20:36:14 34° N 20:36:14 34° N
ERS-1 Rocket 3.3 20:44:49 61° NNW 20:44:49 61° NNW 20:48:58 10° NNW
FALCON 9 R/B 4.2 20:31:12 10° WSW 20:44:37 30° SSW 20:45:16 30° SSW
Meteor 1-24 Rocket 4.0 20:40:55 10° NNW 20:46:48 65° W 20:47:15 62° WSW
Ariane Rocket 3.7 20:49:52 46° W 20:49:52 46° W 20:54:43 10° NNW
BREEZE-M DEB (TANK) 3.6 20:46:20 10° WNW 20:50:42 51° W 20:50:42 51° W
Cosmos 1943 4.0 20:50:09 10° NNW 20:54:31 43° NNE 20:54:31 43° NNE
Spot 2 Rocket 4.2 21:01:35 51° NW 21:01:35 51° NW 21:05:41 10° NNW
Resurs 01 Rocket 4.4 21:03:27 10° WSW 21:05:10 12° W 21:06:57 10° WNW
Cosmos 2297 Rocket 3.8 21:00:13 10° WSW 21:05:18 33° NW 21:10:24 10° NNE
Cosmos 2034 Rocket 4.2 21:01:57 10° NNW 21:07:51 65° W 21:07:51 65° W
Cosmos 2219 3.9 21:13:55 51° NNW 21:13:55 51° NNW 21:18:49 10° NNE
Tsikada Rocket 4.5 21:15:13 52° NNE 21:15:13 52° NNE 21:19:47 10° N
ATLAS 3B R/B 3.7 21:09:31 10° NW 21:16:33 41° NNE 21:17:41 39° NE
Terra 3.4 21:21:29 32° NW 21:21:29 32° NW 21:24:19 10° NNW
Cosmos 2227 Rocket 3.4 21:15:42 10° WSW 21:20:58 38° NW 21:26:15 10° NNE
CZ-4C R/B 2.9 21:15:01 10° NW 21:21:59 78° WSW 21:21:59 78° WSW
SL-16 R/B 3.7 21:27:31 10° NW 21:31:32 30° W 21:31:32 30° W
USA 215 3.8 21:57:51 52° N 21:57:51 52° N 22:03:48 10° WNW
ADEOS Rocket 4.5 22:02:22 31° W 22:02:22 31° W 22:08:14 10° NNW
Cosmos 2263 Rocket 4.0 22:13:19 25° N 22:13:19 25° N 22:15:43 10° NNE
ATLAS 2AS CENTAUR R/B 4.1 22:29:02 31° NE 22:29:02 31° NE 22:32:28 10° NE
ATLAS CENTAUR R/B 4.2 22:41:03 10° WNW 22:49:44 40° NNW 22:49:44 40° NNW
Cosmos 2082 Rocket 4.4 22:59:12 10° N 23:02:28 19° NNE 23:02:28 19° NNE
ATLAS 3B R/B 3.8 23:00:21 10° NW 23:04:56 41° NW 23:04:56 41° NW
Cosmos 2344 4.4 23:12:09 10° NW 23:18:50 55° WNW 23:18:50 55° WNW
